Location: Burtsch�tz
(51.0528°N, 12.1764°E)
Time: 07:48:53
(UTC+00:00)

USA 281 - Pass Details

Date: 29 October 2020
Orbit: 1078 x 1081 km, 106.0° (Epoch: 28 November)

Event Time Altitude Azimuth Distance (km) Brightness Sun altitude
Rises 16:45:01 0° 162° (SSE) 3,863 6.0 -9.1°
Reaches altitude 10° 16:47:33 10° 165° (SSE) 2,912 5.4 -9.5°
Maximum altitude 16:54:02 65° 247° (WSW) 1,184 3.8 -10.5°
Drops below altitude 10° 17:00:35 10° 329° (NNW) 2,931 5.8 -11.5°
Sets 17:03:09 0° 332° (NNW) 3,891 6.4 -11.9°
